Weather History for Casa Grande, AZ

Change the Weather History Date:

Sunday, August 10, 2014

  Actual Average Record
Temperature  
Mean Temperature 88 °F -  
Max Temperature 100 °F 99 °F 113 °F (2003)
Min Temperature 77 °F 76 °F 71 °F (2013)
Cooling Degree Days 24    
Growing Degree Days 38 (Base 50)    
Moisture  
Dew Point 59 °F    
Average Humidity 37    
Maximum Humidity 54    
Minimum Humidity 22    
Precipitation  
Precipitation 0.00 in - - ()
Sea Level Pressure  
Sea Level Pressure 29.94 in    
Wind  
Wind Speed 4 mph (WSW)    
Max Wind Speed 17 mph    
Max Gust Speed 30 mph    
Visibility 10 miles    
Events Thunderstorm    
Averages and records for this station are not official NWS values.
T = Trace of Precipitation, MM = Missing Value Source: NWS Daily Summary

Daily Weather History Graph

Daily Weather History Graph

Search for Another Location

Airport:

Trip Planner

Search our weather history database for the weather conditions in past years. The results will help you decide how hot, cold, wet, or windy it might be!

Date:

Astronomy

Aug. 10, 2014 Rise Set
Actual Time 5:46 AM MST 7:17 PM MST
Civil Twilight 5:20 AM MST 7:43 PM MST
Nautical Twilight 4:48 AM MST 8:15 PM MST
Astronomical Twilight 4:15 AM MST 8:48 PM MST
Moon 7:11 PM MST (8/10) 5:40 AM MST (8/10)
Length of Visible Light 14h 23m
Length of Day
13h 30m
Full, 100% of the Moon is Illuminated
Aug 10
Full
Aug 17
Last Quarter
Aug 25
New
Sep 2
First Quarter
Sep 8
Full

Hourly Weather History & Observations

Time (MST) Temp. Heat Index Dew Point Humidity Pressure Visibility Wind Dir Wind Speed Gust Speed Precip Events Conditions
12:15 AM 84.2 °F 85.0 °F 62.6 °F 48% 29.97 in 10.0 mi South 12.7 mph - N/A   Clear
12:35 AM 84.2 °F 85.0 °F 62.6 °F 48% 29.98 in 10.0 mi South 9.2 mph - N/A   Clear
12:55 AM 82.4 °F 83.4 °F 62.6 °F 51% 29.97 in 10.0 mi South 6.9 mph - N/A   Clear
1:15 AM 82.4 °F 83.4 °F 62.6 °F 51% 29.97 in 10.0 mi South 5.8 mph - N/A   Clear
1:35 AM 82.4 °F 83.4 °F 62.6 °F 51% 29.97 in 10.0 mi South 3.5 mph - N/A   Clear
2:15 AM 82.4 °F 82.9 °F 60.8 °F 48% 29.96 in 10.0 mi Calm Calm - N/A   Clear
2:35 AM 82.4 °F 82.9 °F 60.8 °F 48% 29.96 in 9.0 mi Calm Calm - N/A   Clear
2:55 AM 80.6 °F 81.5 °F 60.8 °F 51% 29.96 in 10.0 mi Calm Calm - N/A   Clear
3:15 AM 80.6 °F 81.5 °F 60.8 °F 51% 29.95 in 10.0 mi Calm Calm - N/A   Clear
3:35 AM 80.6 °F 81.5 °F 60.8 °F 51% 29.95 in 10.0 mi Calm Calm - N/A   Clear
4:15 AM 78.8 °F - 59.0 °F 51% 29.95 in 10.0 mi Calm Calm - N/A   Clear
4:35 AM 77.0 °F - 57.2 °F 50% 29.95 in 10.0 mi Calm Calm - N/A   Clear
4:55 AM 77.0 °F - 59.0 °F 54% 29.95 in 10.0 mi Calm Calm - N/A   Clear
5:15 AM 77.0 °F - 59.0 °F 54% 29.95 in 10.0 mi Calm Calm - N/A   Clear
5:35 AM 77.0 °F - 57.2 °F 50% 29.96 in 10.0 mi Calm Calm - N/A   Clear
5:55 AM 77.0 °F - 57.2 °F 50% 29.97 in 10.0 mi Calm Calm - N/A   Clear
6:15 AM 78.8 °F - 57.2 °F 47% 29.97 in 10.0 mi Calm Calm - N/A   Clear
6:35 AM 80.6 °F 81.1 °F 59.0 °F 48% 29.97 in 10.0 mi Calm Calm - N/A   Clear
6:55 AM 80.6 °F 80.8 °F 57.2 °F 45% 29.98 in 10.0 mi Calm Calm - N/A   Clear
7:15 AM 80.6 °F 80.8 °F 57.2 °F 45% 29.98 in 10.0 mi Calm Calm - N/A   Clear
7:35 AM 82.4 °F 82.5 °F 59.0 °F 45% 29.99 in 10.0 mi Calm Calm - N/A   Clear
7:55 AM 84.2 °F 83.8 °F 59.0 °F 42% 29.99 in 10.0 mi Calm Calm - N/A   Clear
8:15 AM 86.0 °F 85.4 °F 59.0 °F 40% 30.00 in 10.0 mi Calm Calm - N/A   Clear
8:35 AM 87.8 °F 87.1 °F 59.0 °F 38% 30.00 in 10.0 mi Calm Calm - N/A   Clear
8:55 AM 87.8 °F 87.1 °F 59.0 °F 38% 29.99 in 10.0 mi Calm Calm - N/A   Clear
9:15 AM 87.8 °F 87.1 °F 59.0 °F 38% 29.99 in 10.0 mi Calm Calm - N/A   Clear
9:35 AM 89.6 °F 88.9 °F 59.0 °F 36% 30.00 in 10.0 mi Calm Calm - N/A   Clear
9:55 AM 91.4 °F 90.7 °F 59.0 °F 34% 30.00 in 10.0 mi Calm Calm - N/A   Clear
10:15 AM 91.4 °F 90.7 °F 59.0 °F 34% 30.00 in 10.0 mi Calm Calm - N/A   Clear
10:35 AM 93.2 °F 91.9 °F 57.2 °F 30% 29.99 in 10.0 mi Calm Calm - N/A   Clear
10:55 AM 93.2 °F 91.9 °F 57.2 °F 30% 29.99 in 10.0 mi Calm Calm - N/A   Clear
11:15 AM 95.0 °F 93.7 °F 57.2 °F 28% 29.99 in 10.0 mi Calm Calm - N/A   Clear
11:35 AM 95.0 °F 93.7 °F 57.2 °F 28% 29.98 in 10.0 mi Calm Calm - N/A   Clear
11:55 AM 95.0 °F 93.7 °F 57.2 °F 28% 29.97 in 10.0 mi Calm Calm - N/A   Clear
12:15 PM 96.8 °F 95.8 °F 57.2 °F 27% 29.97 in 10.0 mi West 5.8 mph - N/A   Clear
12:35 PM 95.0 °F 93.7 °F 57.2 °F 28% 29.96 in 10.0 mi Calm Calm - N/A   Clear
12:55 PM 96.8 °F 95.8 °F 57.2 °F 27% 29.95 in 10.0 mi SSW 8.1 mph - N/A   Clear
1:15 PM 98.6 °F 97.6 °F 57.2 °F 25% 29.95 in 10.0 mi WSW 11.5 mph 17.3 mph N/A   Clear
1:35 PM 98.6 °F 97.6 °F 57.2 °F 25% 29.94 in 10.0 mi West 6.9 mph 16.1 mph N/A   Clear
1:55 PM 98.6 °F 97.6 °F 57.2 °F 25% 29.93 in 10.0 mi WNW 5.8 mph - N/A   Clear
2:15 PM 98.6 °F 97.6 °F 57.2 °F 25% 29.92 in 10.0 mi Calm Calm - N/A   Clear
2:35 PM 98.6 °F 97.6 °F 57.2 °F 25% 29.90 in 10.0 mi WNW 3.5 mph - N/A   Clear
2:55 PM 100.4 °F 99.7 °F 57.2 °F 24% 29.90 in 10.0 mi West 4.6 mph - N/A   Clear
3:35 PM 100.4 °F 99.7 °F 57.2 °F 24% 29.87 in 10.0 mi West 5.8 mph - N/A   Clear
3:55 PM 100.4 °F 99.7 °F 57.2 °F 24% 29.87 in 10.0 mi West 6.9 mph - N/A   Clear
4:15 PM 100.4 °F 99.7 °F 57.2 °F 24% 29.86 in 10.0 mi West 11.5 mph 17.3 mph N/A   Clear
4:35 PM 100.4 °F 99.7 °F 57.2 °F 24% 29.86 in 10.0 mi WSW 10.4 mph - N/A   Clear
4:55 PM 100.4 °F 99.7 °F 57.2 °F 24% 29.86 in 10.0 mi WNW 8.1 mph - N/A   Clear
5:15 PM 100.4 °F 98.8 °F 55.4 °F 22% 29.85 in 10.0 mi West 10.4 mph - N/A   Clear
5:35 PM 100.4 °F 98.8 °F 55.4 °F 22% 29.85 in 10.0 mi WNW 8.1 mph - N/A   Clear
5:55 PM 100.4 °F 98.8 °F 55.4 °F 22% 29.84 in 10.0 mi West 5.8 mph - N/A   Clear
6:15 PM 100.4 °F 98.8 °F 55.4 °F 22% 29.84 in 10.0 mi West 3.5 mph - N/A   Clear
6:35 PM 98.6 °F 97.2 °F 55.4 °F 24% 29.85 in 10.0 mi WNW 6.9 mph - N/A   Clear
6:55 PM 98.6 °F 97.2 °F 55.4 °F 24% 29.85 in 10.0 mi West 3.5 mph - N/A   Clear
7:15 PM 98.6 °F 97.2 °F 55.4 °F 24% 29.86 in 10.0 mi WNW 5.8 mph - N/A   Clear
7:35 PM 98.6 °F 97.2 °F 55.4 °F 24% 29.88 in 10.0 mi Calm Calm - N/A   Clear
7:55 PM 98.6 °F 97.2 °F 55.4 °F 24% 29.88 in 10.0 mi Calm Calm - N/A   Clear
8:15 PM 98.6 °F 97.2 °F 55.4 °F 24% 29.89 in 10.0 mi Calm Calm - N/A   Clear
8:35 PM 98.6 °F 97.2 °F 55.4 °F 24% 29.94 in 10.0 mi ENE 17.3 mph 25.3 mph N/A Thunderstorm Mostly Cloudy
8:55 PM 87.8 °F 87.6 °F 60.8 °F 40% 29.97 in 7.0 mi ESE 17.3 mph 29.9 mph N/A   Overcast
9:15 PM 82.4 °F 83.9 °F 64.4 °F 54% 29.97 in 10.0 mi East 10.4 mph - N/A   Overcast
9:35 PM 84.2 °F 85.0 °F 62.6 °F 48% 29.96 in 10.0 mi ENE 9.2 mph - N/A   Mostly Cloudy
9:55 PM 84.2 °F 85.6 °F 64.4 °F 51% 29.94 in 10.0 mi ENE 6.9 mph - N/A   Mostly Cloudy
10:15 PM 84.2 °F 85.6 °F 64.4 °F 51% 29.93 in 10.0 mi Calm Calm - N/A   Partly Cloudy
10:35 PM 84.2 °F 85.0 °F 62.6 °F 48% 29.91 in 10.0 mi Calm Calm - N/A   Partly Cloudy
10:55 PM 87.8 °F 88.5 °F 62.6 °F 43% 29.92 in 10.0 mi SSE 5.8 mph - N/A   Clear
11:15 PM 86.0 °F 87.3 °F 64.4 °F 48% 29.93 in 10.0 mi Calm Calm - N/A   Clear
11:35 PM 86.0 °F 87.3 °F 64.4 °F 48% 29.94 in 10.0 mi Calm Calm - N/A   Clear
11:55 PM 84.2 °F 85.6 °F 64.4 °F 51% 29.94 in 10.0 mi East 5.8 mph - N/A   Clear